一网星座-0610星 (ONEWEB-0610 )

导读

ONEWEB-0610是由英国(GB)发射的卫星,于2022年12月8日08:00升空,隶属于OneWeb低轨卫星互联网星座系统。该星座旨在构建全球覆盖的卫星通信网络,为地面偏远地区提供高速互联网接入服务,ONEWEB-0610是该星座组网过程中的重要组成部分,助力全球互联网络的完善。

基本信息
目录编号:
54673
目录名称:
ONEWEB-0610
国际标识:
2022-166AH
轨道中心:
EARTH
卫星名称:
一网星座-0610星
卫星全名:
一网星座-0610星 (ONEWEB-0610 )
卫星状态:
在轨 (已飞行1284 天)
发射日期:
2022-12-08 UTC
国别 :
英国 (GB)
星等 :
--
轨道信息
数据来源 国际轨道数据 AOE轨道数据
星历时间 2026-06-14T06:24:11+0800
13小时前
查看轨道信息
2026-06-14T03:00:00+0800
16小时前
查看轨道信息
半长轴 7555.897km 7555.896km
偏心率 0.0002169 0.000198
轨道倾角 87.925° 87.925°
近地点辐角 82.373° 61.806°
升交点赤经 244.629° 244.657°
平近点角 277.765° 344.005°
近地点 1176.121km 1176.262km
远地点 1179.399km 1179.256km
周期 108.940分钟 108.940分钟
每日圈数 13.218243 13.218246
详细信息
平衡模式:
三轴稳定
覆盖范围:
全球
运营商:
一网卫星公司
运营商所在国:
英国
制造商(研发单位):
一网卫星公司
制造商所在国:
英国
使用方式:
暂无
卫星简介
OneWeb卫星网络由648颗重约125公斤的微型卫星组成,运行在1200公里的轨道上。 每颗卫星都能够提供至少每秒8千兆位的吞吐量,以使用其高吞吐量的Ku频段有效载荷为家庭和移动平台提供互联网接入。该卫星仍在工作。
2D轨道图
3D轨道图
轨道高度分析图
轨道倾角分析图
轨道综合分析图
查看轨道综合分析图